| time (UTC) | temp F | wind direction | speed MPH | gust MPH | rain 1hr in | rain 24hr in | rain mn in | humidity % | barometer mb |
| 20260508185109 | 59 | 0 | 1.0 | 4.0 | 0.00 | 0.04 | 0.04 | 74 | 1011.5 |
| 20260508184833 | 58 | 351 | 2.0 | 4.0 | 0.00 | 0.04 | 0.04 | 75 | 1011.7 |
| 20260508184057 | 58 | 346 | 2.0 | 4.0 | 0.00 | 0.04 | 0.04 | 73 | 1011.7 |
| 20260508183551 | 58 | 355 | 2.0 | 4.0 | 0.00 | 0.04 | 0.04 | 72 | 1011.8 |
| 20260508183044 | 59 | 0 | 2.0 | 5.0 | 0.00 | 0.04 | 0.04 | 73 | 1011.8 |
| 20260508182538 | 58 | 342 | 3.0 | 5.0 | 0.00 | 0.04 | 0.04 | 72 | 1011.8 |
| 20260508182032 | 58 | 323 | 2.0 | 6.0 | 0.00 | 0.04 | 0.04 | 72 | 1012.0 |
| 20260508181526 | 59 | 319 | 2.0 | 8.0 | 0.00 | 0.04 | 0.04 | 70 | 1012.0 |
| 20260508181021 | 59 | 316 | 3.0 | 8.0 | 0.00 | 0.04 | 0.04 | 71 | 1012.1 |
| 20260508180516 | 59 | 304 | 4.0 | 8.0 | 0.00 | 0.04 | 0.04 | 69 | 1012.2 |
| 20260508180109 | 59 | 239 | 4.0 | 8.0 | 0.00 | 0.04 | 0.04 | 67 | 1012.3 |
| 20260508174957 | 58 | 219 | 5.0 | 11.0 | 0.00 | 0.04 | 0.04 | 69 | 1012.4 |
| 20260508174451 | 58 | 286 | 5.0 | 12.0 | 0.00 | 0.04 | 0.04 | 69 | 1012.5 |
| 20260508173945 | 58 | 237 | 7.0 | 18.0 | 0.00 | 0.04 | 0.04 | 70 | 1012.5 |
| 20260508173438 | 58 | 244 | 8.0 | 18.0 | 0.00 | 0.04 | 0.04 | 69 | 1012.5 |
| 20260508172932 | 58 | 211 | 9.0 | 18.0 | 0.00 | 0.04 | 0.04 | 70 | 1012.5 |
| 20260508172426 | 58 | 239 | 8.0 | 18.0 | 0.00 | 0.04 | 0.04 | 69 | 1012.4 |
| 20260508171920 | 59 | 211 | 7.0 | 13.0 | 0.00 | 0.04 | 0.04 | 72 | 1012.5 |
| 20260508171415 | 58 | 234 | 8.0 | 13.0 | 0.00 | 0.04 | 0.04 | 73 | 1012.4 |
| 20260508170909 | 58 | 231 | 7.0 | 13.0 | 0.00 | 0.04 | 0.04 | 73 | 1012.6 |
| 20260508170402 | 57 | 220 | 8.0 | 13.0 | 0.00 | 0.04 | 0.04 | 74 | 1012.6 |
| 20260508165856 | 57 | 0 | 6.0 | 13.0 | 0.00 | 0.04 | 0.04 | 74 | 1012.8 |
| 20260508165351 | 56 | 200 | 6.0 | 10.0 | 0.00 | 0.04 | 0.04 | 79 | 1012.9 |
| 20260508165116 | 55 | 224 | 6.0 | 10.0 | 0.00 | 0.04 | 0.04 | 79 | 1013.1 |
| 20260508164338 | 54 | 0 | 6.0 | 9.0 | 0.01 | 0.04 | 0.04 | 82 | 1013.4 |
| 20260508163837 | 53 | 0 | 5.0 | 9.0 | 0.01 | 0.04 | 0.04 | 82 | 1013.5 |
| 20260508163337 | 53 | 0 | 4.0 | 9.0 | 0.01 | 0.04 | 0.04 | 84 | 1013.6 |
| 20260508162835 | 52 | 0 | 4.0 | 8.0 | 0.01 | 0.04 | 0.04 | 86 | 1013.7 |
| 20260508162606 | 52 | 0 | 2.0 | 6.0 | 0.01 | 0.04 | 0.04 | 86 | 1013.7 |
| 20260508161834 | 52 | 0 | 1.0 | 5.0 | 0.02 | 0.04 | 0.04 | 87 | 1013.7 |
| 20260508161335 | 52 | 0 | 2.0 | 10.0 | 0.02 | 0.04 | 0.04 | 87 | 1013.8 |
| 20260508160836 | 51 | 0 | 3.0 | 10.0 | 0.02 | 0.04 | 0.04 | 87 | 1013.9 |
| 20260508160335 | 51 | 0 | 5.0 | 10.0 | 0.03 | 0.04 | 0.04 | 86 | 1014.0 |
| 20260508155835 | 51 | 0 | 5.0 | 11.0 | 0.03 | 0.04 | 0.04 | 86 | 1014.2 |
| 20260508155335 | 51 | 0 | 5.0 | 11.0 | 0.03 | 0.04 | 0.04 | 86 | 1014.2 |
| 20260508154835 | 51 | 0 | 6.0 | 14.0 | 0.03 | 0.04 | 0.04 | 85 | 1014.3 |
| 20260508154335 | 51 | 0 | 7.0 | 14.0 | 0.02 | 0.03 | 0.03 | 85 | 1014.2 |
| 20260508153835 | 51 | 0 | 7.0 | 12.0 | 0.02 | 0.03 | 0.03 | 85 | 1014.3 |
| 20260508153335 | 51 | 271 | 6.0 | 12.0 | 0.02 | 0.03 | 0.03 | 86 | 1014.3 |
| 20260508152835 | 51 | 0 | 5.0 | 10.0 | 0.02 | 0.03 | 0.03 | 86 | 1014.2 |
| 20260508152335 | 51 | 0 | 6.0 | 11.0 | 0.02 | 0.03 | 0.03 | 85 | 1014.3 |
| 20260508151834 | 51 | 0 | 5.0 | 10.0 | 0.01 | 0.02 | 0.02 | 84 | 1014.4 |
| 20260508151328 | 51 | 0 | 5.0 | 10.0 | 0.01 | 0.02 | 0.02 | 84 | 1014.3 |
| 20260508150824 | 51 | 0 | 6.0 | 10.0 | 0.01 | 0.02 | 0.02 | 82 | 1014.2 |
| 20260508150325 | 52 | 253 | 6.0 | 10.0 | 0.00 | 0.01 | 0.01 | 81 | 1014.3 |
| 20260508145823 | 52 | 0 | 6.0 | 13.0 | 0.00 | 0.01 | 0.01 | 81 | 1013.9 |
| 20260508145554 | 52 | 223 | 5.0 | 13.0 | 0.00 | 0.01 | 0.01 | 81 | 1013.9 |
| 20260508144823 | 52 | 0 | 6.0 | 13.0 | 0.00 | 0.01 | 0.01 | 80 | 1013.8 |
| 20260508144554 | 53 | 0 | 5.0 | 13.0 | 0.00 | 0.01 | 0.01 | 78 | 1013.9 |
| 20260508143827 | 53 | 0 | 6.0 | 12.0 | 0.00 | 0.01 | 0.01 | 77 | 1013.8 |
| 20260508143823 | 53 | 0 | 5.0 | 12.0 | 0.00 | 0.01 | 0.01 | 77 | 1013.7 |
| 20260508142820 | 53 | 0 | 6.0 | 12.0 | 0.00 | 0.01 | 0.01 | 76 | 1013.7 |
| 20260508142320 | 53 | 0 | 7.0 | 13.0 | 0.00 | 0.01 | 0.01 | 75 | 1013.6 |
| 20260508142053 | 53 | 0 | 7.0 | 13.0 | 0.00 | 0.01 | 0.01 | 75 | 1013.7 |
| 20260508141553 | 53 | 0 | 8.0 | 13.0 | 0.00 | 0.01 | 0.01 | 74 | 1013.6 |
| 20260508141054 | 53 | 0 | 8.0 | 13.0 | 0.00 | 0.01 | 0.01 | 73 | 1013.6 |
| 20260508140323 | 53 | 0 | 8.0 | 15.0 | 0.00 | 0.01 | 0.01 | 74 | 1013.8 |
| 20260508135821 | 53 | 0 | 8.0 | 15.0 | 0.00 | 0.01 | 0.01 | 73 | 1013.7 |
| 20260508135321 | 53 | 0 | 8.0 | 15.0 | 0.00 | 0.01 | 0.01 | 73 | 1013.8 |
| 20260508134818 | 53 | 0 | 8.0 | 15.0 | 0.00 | 0.01 | 0.01 | 73 | 1013.7 |
| 20260508134318 | 53 | 0 | 7.0 | 14.0 | 0.00 | 0.01 | 0.01 | 74 | 1013.8 |
| 20260508133819 | 53 | 0 | 7.0 | 14.0 | 0.00 | 0.01 | 0.01 | 73 | 1013.6 |
| 20260508133551 | 53 | 0 | 8.0 | 14.0 | 0.00 | 0.01 | 0.01 | 73 | 1013.6 |
| 20260508133049 | 53 | 0 | 9.0 | 14.0 | 0.00 | 0.01 | 0.01 | 73 | 1013.7 |
| 20260508132319 | 53 | 0 | 10.0 | 15.0 | 0.00 | 0.01 | 0.01 | 74 | 1013.8 |
| 20260508131819 | 53 | 0 | 9.0 | 15.0 | 0.00 | 0.01 | 0.01 | 73 | 1013.8 |
| 20260508131550 | 53 | 0 | 8.0 | 15.0 | 0.00 | 0.01 | 0.01 | 72 | 1013.8 |
| 20260508130819 | 53 | 0 | 7.0 | 15.0 | 0.00 | 0.01 | 0.01 | 73 | 1013.7 |
| 20260508130549 | 53 | 0 | 8.0 | 15.0 | 0.00 | 0.01 | 0.01 | 73 | 1013.8 |
| 20260508125819 | 52 | 0 | 9.0 | 15.0 | 0.00 | 0.01 | 0.01 | 72 | 1013.7 |
| 20260508125319 | 52 | 0 | 8.0 | 13.0 | 0.00 | 0.01 | 0.01 | 72 | 1013.7 |
| 20260508125055 | 52 | 0 | 8.0 | 14.0 | 0.00 | 0.01 | 0.01 | 73 | 1013.7 |
| 20260508124318 | 52 | 0 | 9.0 | 14.0 | 0.00 | 0.01 | 0.01 | 72 | 1013.7 |
| 20260508123818 | 52 | 0 | 7.0 | 12.0 | 0.00 | 0.01 | 0.01 | 73 | 1013.7 |
| 20260508123318 | 52 | 0 | 7.0 | 12.0 | 0.00 | 0.01 | 0.01 | 73 | 1013.7 |
| 20260508122817 | 52 | 0 | 7.0 | 12.0 | 0.00 | 0.01 | 0.01 | 73 | 1013.7 |
| 20260508122314 | 52 | 0 | 7.0 | 14.0 | 0.00 | 0.01 | 0.01 | 73 | 1013.7 |
| 20260508121814 | 52 | 0 | 7.0 | 14.0 | 0.00 | 0.01 | 0.01 | 73 | 1013.6 |
| 20260508121312 | 51 | 0 | 8.0 | 14.0 | 0.00 | 0.01 | 0.01 | 73 | 1013.6 |
| 20260508121044 | 51 | 0 | 8.0 | 14.0 | 0.00 | 0.01 | 0.01 | 73 | 1013.7 |
| 20260508120313 | 51 | 0 | 7.0 | 14.0 | 0.00 | 0.01 | 0.01 | 74 | 1013.7 |
| 20260508120041 | 51 | 0 | 7.0 | 12.0 | 0.00 | 0.01 | 0.01 | 74 | 1013.6 |
| 20260508115310 | 51 | 0 | 7.0 | 12.0 | 0.00 | 0.01 | 0.01 | 74 | 1013.6 |
| 20260508114808 | 50 | 0 | 6.0 | 10.0 | 0.00 | 0.01 | 0.01 | 74 | 1013.6 |
| 20260508114309 | 50 | 0 | 6.0 | 11.0 | 0.00 | 0.01 | 0.01 | 75 | 1013.5 |
| 20260508113808 | 50 | 0 | 7.0 | 11.0 | 0.00 | 0.01 | 0.01 | 75 | 1013.5 |
| 20260508113311 | 50 | 0 | 7.0 | 10.0 | 0.00 | 0.01 | 0.01 | 75 | 1013.4 |
| 20260508113040 | 49 | 0 | 7.0 | 10.0 | 0.00 | 0.01 | 0.01 | 76 | 1013.4 |
| 20260508112307 | 49 | 0 | 7.0 | 10.0 | 0.00 | 0.01 | 0.01 | 76 | 1013.3 |
| 20260508111758 | 49 | 0 | 7.0 | 15.0 | 0.00 | 0.01 | 0.01 | 76 | 1013.2 |
| 20260508111252 | 49 | 0 | 7.0 | 15.0 | 0.00 | 0.01 | 0.01 | 76 | 1013.2 |
| 20260508110746 | 48 | 0 | 7.0 | 15.0 | 0.00 | 0.01 | 0.01 | 76 | 1013.2 |
| 20260508110239 | 48 | 0 | 7.0 | 15.0 | 0.00 | 0.01 | 0.01 | 76 | 1013.2 |
| 20260508105732 | 48 | 0 | 5.0 | 10.0 | 0.00 | 0.01 | 0.01 | 76 | 1013.1 |
| 20260508105456 | 48 | 0 | 5.0 | 9.0 | 0.00 | 0.01 | 0.01 | 76 | 1013.1 |
| 20260508104718 | 48 | 0 | 5.0 | 9.0 | 0.00 | 0.01 | 0.01 | 76 | 1013.2 |
| 20260508104213 | 48 | 0 | 5.0 | 9.0 | 0.00 | 0.01 | 0.01 | 76 | 1013.2 |
| 20260508103706 | 48 | 0 | 4.0 | 9.0 | 0.00 | 0.01 | 0.01 | 76 | 1013.1 |
| 20260508103159 | 48 | 0 | 4.0 | 9.0 | 0.00 | 0.01 | 0.01 | 76 | 1013.1 |
| 20260508102654 | 48 | 0 | 5.0 | 9.0 | 0.00 | 0.01 | 0.01 | 76 | 1013.1 |
| 20260508102148 | 48 | 0 | 5.0 | 9.0 | 0.00 | 0.01 | 0.01 | 76 | 1013.0 |
| 20260508101642 | 48 | 0 | 5.0 | 9.0 | 0.00 | 0.01 | 0.01 | 76 | 1013.1 |
| 20260508101136 | 48 | 0 | 5.0 | 10.0 | 0.00 | 0.01 | 0.01 | 76 | 1013.2 |
| 20260508100631 | 48 | 0 | 5.0 | 10.0 | 0.00 | 0.01 | 0.01 | 76 | 1013.1 |
| 20260508100124 | 48 | 0 | 5.0 | 10.0 | 0.00 | 0.01 | 0.01 | 76 | 1013.1 |
| 20260508095618 | 48 | 232 | 6.0 | 12.0 | 0.00 | 0.01 | 0.01 | 76 | 1013.1 |
| 20260508095112 | 48 | 0 | 6.0 | 12.0 | 0.00 | 0.01 | 0.01 | 76 | 1013.1 |
| 20260508094607 | 48 | 0 | 7.0 | 12.0 | 0.00 | 0.01 | 0.01 | 77 | 1013.1 |
| 20260508094100 | 48 | 0 | 7.0 | 12.0 | 0.00 | 0.01 | 0.01 | 77 | 1013.1 |
| 20260508093555 | 47 | 0 | 6.0 | 11.0 | 0.00 | 0.01 | 0.01 | 77 | 1013.2 |
| 20260508093048 | 47 | 0 | 6.0 | 11.0 | 0.00 | 0.01 | 0.01 | 77 | 1013.2 |
| 20260508092542 | 47 | 0 | 6.0 | 11.0 | 0.00 | 0.01 | 0.01 | 77 | 1013.2 |
| 20260508092036 | 47 | 0 | 7.0 | 11.0 | 0.00 | 0.01 | 0.01 | 78 | 1013.2 |
| 20260508091530 | 47 | 0 | 6.0 | 11.0 | 0.00 | 0.01 | 0.01 | 78 | 1013.2 |
| 20260508091024 | 47 | 0 | 6.0 | 12.0 | 0.00 | 0.01 | 0.01 | 78 | 1013.2 |
| 20260508090518 | 48 | 0 | 6.0 | 12.0 | 0.00 | 0.01 | 0.01 | 78 | 1013.2 |
| 20260508090012 | 47 | 0 | 6.0 | 12.0 | 0.00 | 0.01 | 0.01 | 78 | 1013.2 |
| 20260508085506 | 47 | 0 | 6.0 | 12.0 | 0.00 | 0.01 | 0.01 | 78 | 1013.2 |
| 20260508085000 | 48 | 0 | 6.0 | 11.0 | 0.00 | 0.01 | 0.01 | 78 | 1013.2 |
| 20260508084454 | 48 | 0 | 6.0 | 11.0 | 0.00 | 0.01 | 0.01 | 79 | 1013.1 |
| 20260508084220 | 48 | 0 | 5.0 | 10.0 | 0.00 | 0.01 | 0.01 | 79 | 1013.1 |
| 20260508083442 | 48 | 0 | 5.0 | 10.0 | 0.00 | 0.01 | 0.01 | 79 | 1013.2 |
| 20260508083206 | 48 | 0 | 6.0 | 10.0 | 0.00 | 0.01 | 0.01 | 79 | 1013.1 |
| 20260508082430 | 48 | 0 | 6.0 | 10.0 | 0.00 | 0.01 | 0.01 | 78 | 1013.2 |
| 20260508081924 | 49 | 0 | 5.0 | 8.0 | 0.00 | 0.01 | 0.01 | 79 | 1013.1 |
| 20260508081418 | 48 | 0 | 5.0 | 8.0 | 0.00 | 0.01 | 0.01 | 80 | 1013.2 |
| 20260508081143 | 48 | 0 | 5.0 | 8.0 | 0.00 | 0.01 | 0.01 | 79 | 1013.2 |
| 20260508080406 | 49 | 0 | 5.0 | 9.0 | 0.00 | 0.01 | 0.01 | 78 | 1013.3 |
| 20260508075902 | 50 | 0 | 5.0 | 9.0 | 0.00 | 0.01 | 0.01 | 78 | 1013.3 |
| 20260508075633 | 49 | 200 | 5.0 | 10.0 | 0.00 | 0.01 | 0.01 | 80 | 1013.3 |
| 20260508074900 | 49 | 0 | 5.0 | 10.0 | 0.00 | 0.01 | 0.01 | 80 | 1013.4 |
| 20260508074358 | 49 | 0 | 5.0 | 9.0 | 0.00 | 0.01 | 0.01 | 79 | 1013.3 |
| 20260508073858 | 50 | 0 | 4.0 | 8.0 | 0.00 | 0.01 | 0.01 | 79 | 1013.5 |
| 20260508073358 | 50 | 0 | 4.0 | 8.0 | 0.00 | 0.01 | 0.01 | 81 | 1013.4 |
| 20260508073127 | 49 | 0 | 4.0 | 8.0 | 0.00 | 0.01 | 0.01 | 82 | 1013.4 |
| 20260508072354 | 49 | 0 | 4.0 | 6.0 | 0.00 | 0.01 | 0.01 | 81 | 1013.4 |
| 20260508072125 | 49 | 0 | 3.0 | 6.0 | 0.00 | 0.01 | 0.01 | 80 | 1013.5 |
| 20260508071354 | 50 | 0 | 3.0 | 5.0 | 0.00 | 0.01 | 0.01 | 82 | 1013.5 |
| 20260508070856 | 49 | 0 | 2.0 | 4.0 | 0.00 | 0.01 | 0.01 | 84 | 1013.5 |
| 20260508070354 | 49 | 0 | 2.0 | 3.0 | 0.00 | 0.01 | 0.01 | 85 | 1013.6 |
| 20260508065852 | 50 | 0 | 2.0 | 3.0 | 0.00 | 0.01 | 0.01 | 82 | 1013.6 |
| 20260508065352 | 51 | 0 | 2.0 | 3.0 | 0.00 | 0.01 | 0.01 | 83 | 1013.6 |
| 20260508064852 | 50 | 0 | 1.0 | 3.0 | 0.00 | 0.01 | 0.01 | 90 | 1013.7 |
| 20260508064352 | 49 | 0 | 2.0 | 4.0 | 0.00 | 0.01 | 0.01 | 89 | 1013.8 |
| 20260508063851 | 48 | 0 | 2.0 | 4.0 | 0.00 | 0.01 | 0.01 | 86 | 1013.8 |
| 20260508063617 | 50 | 0 | 2.0 | 3.0 | 0.00 | 0.01 | 0.01 | 85 | 1013.9 |
| 20260508062845 | 50 | 0 | 2.0 | 3.0 | 0.00 | 0.01 | 0.01 | 89 | 1013.9 |
| 20260508062344 | 49 | 0 | 2.0 | 3.0 | 0.00 | 0.01 | 0.01 | 93 | 1014.0 |
| 20260508062114 | 47 | 0 | 2.0 | 4.0 | 0.00 | 0.01 | 0.01 | 91 | 1014.0 |
| 20260508061612 | 47 | 0 | 3.0 | 4.0 | 0.00 | 0.01 | 0.01 | 89 | 1014.2 |
| 20260508060841 | 48 | 0 | 2.0 | 4.0 | 0.00 | 0.01 | 0.01 | 88 | 1014.3 |
| 20260508060342 | 48 | 0 | 1.0 | 4.0 | 0.00 | 0.01 | 0.01 | 87 | 1014.3 |
| 20260508060113 | 49 | 0 | 1.0 | 3.0 | 0.00 | 0.01 | 0.01 | 87 | 1014.0 |
| 20260508055342 | 49 | 0 | 2.0 | 3.0 | 0.00 | 0.01 | 0.01 | 86 | 1014.0 |
| 20260508054839 | 50 | 0 | 2.0 | 3.0 | 0.00 | 0.01 | 0.01 | 86 | 1014.0 |
| 20260508054337 | 50 | 0 | 1.0 | 3.0 | 0.00 | 0.01 | 0.01 | 88 | 1014.0 |
| 20260508053838 | 49 | 0 | 1.0 | 3.0 | 0.00 | 0.01 | 0.01 | 88 | 1014.2 |
| 20260508053337 | 50 | 0 | 0.0 | 3.0 | 0.00 | 0.01 | 0.01 | 86 | 1014.2 |
| 20260508052837 | 50 | 0 | 0.0 | 3.0 | 0.00 | 0.01 | 0.01 | 84 | 1014.2 |
| 20260508051840 | 52 | 0 | 2.0 | 5.0 | 0.00 | 0.01 | 0.01 | 86 | 1014.3 |
| 20260508051340 | 51 | 0 | 3.0 | 5.0 | 0.00 | 0.01 | 0.01 | 91 | 1014.2 |
| 20260508050840 | 49 | 0 | 3.0 | 5.0 | 0.00 | 0.01 | 0.01 | 90 | 1014.3 |
| 20260508050337 | 49 | 0 | 2.0 | 4.0 | 0.00 | 0.01 | 0.01 | 88 | 1014.4 |
| 20260508045837 | 49 | 0 | 1.0 | 3.0 | 0.01 | 0.01 | 0.01 | 87 | 1014.5 |
| 20260508045337 | 50 | 0 | 1.0 | 2.0 | 0.01 | 0.01 | 0.01 | 87 | 1014.5 |
| 20260508044838 | 49 | 0 | 2.0 | 3.0 | 0.01 | 0.01 | 0.01 | 89 | 1014.4 |
| 20260508044608 | 49 | 0 | 1.0 | 3.0 | 0.01 | 0.01 | 0.01 | 85 | 1014.6 |
| 20260508043837 | 49 | 0 | 0.0 | 2.0 | 0.01 | 0.01 | 0.01 | 84 | 1014.6 |
| 20260508043337 | 49 | 0 | 1.0 | 3.0 | 0.01 | 0.01 | 0.01 | 85 | 1014.5 |
| 20260508043108 | 49 | 0 | 3.0 | 8.0 | 0.01 | 0.01 | 0.01 | 83 | 1014.6 |
| 20260508042338 | 49 | 0 | 4.0 | 8.0 | 0.01 | 0.01 | 0.01 | 83 | 1014.5 |
| 20260508041838 | 49 | 0 | 4.0 | 17.0 | 0.01 | 0.01 | 0.01 | 83 | 1014.6 |
| 20260508041609 | 49 | 0 | 6.0 | 17.0 | 0.01 | 0.01 | 0.01 | 82 | 1014.8 |
| 20260508040837 | 50 | 0 | 7.0 | 17.0 | 0.01 | 0.01 | 0.01 | 81 | 1014.9 |
| 20260508040337 | 50 | 0 | 5.0 | 17.0 | 0.01 | 0.01 | 0.01 | 78 | 1015.0 |
| 20260508035837 | 51 | 0 | 2.0 | 6.0 | 0.00 | 0.00 | 0.00 | 78 | 1014.8 |
| 20260508035329 | 52 | 0 | 2.0 | 4.0 | 0.00 | 0.00 | 0.00 | 73 | 1014.4 |
| 20260508034822 | 53 | 0 | 2.0 | 9.0 | 0.00 | 0.00 | 0.00 | 71 | 1014.2 |
| 20260508034316 | 54 | 0 | 3.0 | 9.0 | 0.00 | 0.00 | 0.00 | 73 | 1013.8 |
| 20260508034041 | 52 | 0 | 5.0 | 9.0 | 0.00 | 0.00 | 0.00 | 76 | 1013.8 |
| 20260508033305 | 51 | 0 | 6.0 | 9.0 | 0.00 | 0.00 | 0.00 | 73 | 1013.8 |
| 20260508032759 | 52 | 0 | 5.0 | 9.0 | 0.00 | 0.00 | 0.00 | 72 | 1013.8 |
| 20260508032253 | 52 | 0 | 5.0 | 10.0 | 0.00 | 0.00 | 0.00 | 71 | 1013.8 |
| 20260508031747 | 52 | 0 | 5.0 | 10.0 | 0.00 | 0.00 | 0.00 | 72 | 1013.8 |
| 20260508031241 | 51 | 0 | 4.0 | 9.0 | 0.00 | 0.00 | 0.00 | 73 | 1013.8 |
| 20260508031006 | 52 | 0 | 4.0 | 8.0 | 0.00 | 0.00 | 0.00 | 70 | 1013.9 |
| 20260508030229 | 53 | 0 | 4.0 | 8.0 | 0.00 | 0.00 | 0.00 | 69 | 1014.0 |
| 20260508025723 | 53 | 0 | 4.0 | 6.0 | 0.00 | 0.00 | 0.00 | 71 | 1014.2 |
| 20260508025216 | 52 | 0 | 3.0 | 6.0 | 0.00 | 0.00 | 0.00 | 71 | 1014.3 |
| 20260508024941 | 52 | 0 | 4.0 | 6.0 | 0.00 | 0.00 | 0.00 | 69 | 1014.2 |
| 20260508024203 | 53 | 0 | 3.0 | 5.0 | 0.00 | 0.00 | 0.00 | 67 | 1014.2 |
| 20260508023657 | 54 | 0 | 2.0 | 5.0 | 0.00 | 0.00 | 0.00 | 67 | 1014.3 |
| 20260508023152 | 53 | 0 | 3.0 | 5.0 | 0.00 | 0.00 | 0.00 | 69 | 1014.3 |
| 20260508022646 | 53 | 0 | 3.0 | 5.0 | 0.00 | 0.00 | 0.00 | 65 | 1014.3 |
| 20260508022139 | 54 | 0 | 3.0 | 5.0 | 0.00 | 0.00 | 0.00 | 62 | 1014.2 |
| 20260508021633 | 56 | 0 | 2.0 | 4.0 | 0.00 | 0.00 | 0.00 | 61 | 1014.2 |
| 20260508021127 | 55 | 0 | 2.0 | 4.0 | 0.00 | 0.00 | 0.00 | 62 | 1014.2 |
| 20260508020622 | 54 | 0 | 2.0 | 3.0 | 0.00 | 0.00 | 0.00 | 65 | 1014.2 |
| 20260508020346 | 55 | 0 | 2.0 | 4.0 | 0.00 | 0.00 | 0.00 | 61 | 1014.3 |
| 20260508015610 | 57 | 0 | 2.0 | 4.0 | 0.00 | 0.00 | 0.00 | 60 | 1014.2 |
| 20260508015104 | 56 | 0 | 1.0 | 4.0 | 0.00 | 0.00 | 0.00 | 67 | 1014.0 |
| 20260508014558 | 53 | 0 | 0.0 | 3.0 | 0.00 | 0.00 | 0.00 | 75 | 1014.3 |
| 20260508014051 | 52 | 263 | 0.0 | 0.0 | 0.00 | 0.00 | 0.00 | 73 | 1014.3 |
| 20260508013545 | 53 | 0 | 0.0 | 0.0 | 0.00 | 0.00 | 0.00 | 72 | 1014.2 |
| 20260508013311 | 53 | 0 | 0.0 | 0.0 | 0.00 | 0.00 | 0.00 | 74 | 1014.2 |
| 20260508012805 | 53 | 0 | 0.0 | 0.0 | 0.00 | 0.00 | 0.00 | 72 | 1014.2 |
| 20260508012027 | 53 | 0 | 1.0 | 2.0 | 0.00 | 0.00 | 0.00 | 69 | 1014.2 |
| 20260508011753 | 53 | 0 | 1.0 | 3.0 | 0.00 | 0.00 | 0.00 | 66 | 1014.0 |
| 20260508011015 | 54 | 0 | 1.0 | 3.0 | 0.00 | 0.00 | 0.00 | 65 | 1014.0 |
| 20260508010510 | 54 | 0 | 1.0 | 2.0 | 0.00 | 0.00 | 0.00 | 69 | 1013.8 |
| 20260508010003 | 54 | 0 | 1.0 | 2.0 | 0.00 | 0.00 | 0.00 | 68 | 1013.9 |
| 20260508005457 | 54 | 0 | 0.0 | 2.0 | 0.00 | 0.00 | 0.00 | 64 | 1013.8 |
| 20260508005223 | 55 | 0 | 0.0 | 2.0 | 0.00 | 0.00 | 0.00 | 62 | 1013.8 |
| 20260508004445 | 56 | 0 | 1.0 | 2.0 | 0.00 | 0.00 | 0.00 | 61 | 1014.2 |
| 20260508003939 | 55 | 0 | 1.0 | 2.0 | 0.00 | 0.00 | 0.00 | 63 | 1013.9 |
| 20260508003434 | 53 | 0 | 1.0 | 4.0 | 0.00 | 0.00 | 0.00 | 63 | 1013.9 |
| 20260508003159 | 53 | 0 | 1.0 | 4.0 | 0.00 | 0.00 | 0.00 | 61 | 1013.9 |
| 20260508002422 | 53 | 0 | 2.0 | 4.0 | 0.00 | 0.00 | 0.00 | 60 | 1013.9 |
| 20260508001916 | 53 | 0 | 2.0 | 4.0 | 0.00 | 0.00 | 0.00 | 60 | 1013.9 |
| 20260508001409 | 53 | 0 | 2.0 | 6.0 | 0.00 | 0.00 | 0.00 | 60 | 1013.9 |
| 20260508001135 | 53 | 0 | 2.0 | 6.0 | 0.00 | 0.00 | 0.00 | 60 | 1014.2 |
| 20260508000357 | 53 | 0 | 3.0 | 6.0 | 0.00 | 0.00 | 0.00 | 60 | 1014.0 |
| 20260507235852 | 53 | 0 | 4.0 | 12.0 | 0.00 | 0.00 | 0.00 | 60 | 1014.2 |
| 20260507235346 | 53 | 0 | 6.0 | 12.0 | 0.00 | 0.00 | 0.00 | 60 | 1014.2 |
| 20260507234844 | 53 | 0 | 6.0 | 13.0 | 0.00 | 0.00 | 0.00 | 60 | 1014.3 |
| 20260507234344 | 53 | 0 | 5.0 | 13.0 | 0.00 | 0.00 | 0.00 | 59 | 1014.3 |
| 20260507233844 | 53 | 0 | 7.0 | 18.0 | 0.00 | 0.00 | 0.00 | 58 | 1014.3 |
| 20260507233343 | 54 | 0 | 8.0 | 18.0 | 0.00 | 0.00 | 0.00 | 57 | 1014.3 |
| 20260507232842 | 54 | 0 | 9.0 | 18.0 | 0.00 | 0.00 | 0.00 | 55 | 1014.3 |
| 20260507232342 | 54 | 0 | 11.0 | 23.0 | 0.00 | 0.00 | 0.00 | 54 | 1014.3 |
| 20260507231842 | 54 | 0 | 10.0 | 23.0 | 0.00 | 0.00 | 0.00 | 53 | 1014.3 |
| 20260507231342 | 55 | 0 | 9.0 | 23.0 | 0.00 | 0.00 | 0.00 | 53 | 1014.3 |
| 20260507230842 | 54 | 0 | 7.0 | 29.0 | 0.00 | 0.00 | 0.00 | 52 | 1014.2 |
| 20260507230342 | 54 | 0 | 10.0 | 29.0 | 0.00 | 0.00 | 0.00 | 52 | 1014.2 |
| 20260507225842 | 54 | 0 | 13.0 | 29.0 | 0.00 | 0.00 | 0.00 | 53 | 1014.3 |
| 20260507225341 | 55 | 267 | 8.0 | 29.0 | 0.00 | 0.00 | 0.00 | 50 | 1014.4 |
| 20260507224843 | 56 | 257 | 6.0 | 10.0 | 0.00 | 0.00 | 0.00 | 47 | 1013.8 |
| 20260507224341 | 56 | 254 | 7.0 | 10.0 | 0.00 | 0.00 | 0.00 | 47 | 1013.7 |
| 20260507223841 | 56 | 231 | 8.0 | 11.0 | 0.00 | 0.00 | 0.00 | 45 | 1013.8 |
| 20260507223342 | 56 | 259 | 7.0 | 12.0 | 0.00 | 0.00 | 0.00 | 47 | 1013.8 |
| 20260507222836 | 56 | 263 | 5.0 | 12.0 | 0.00 | 0.00 | 0.00 | 46 | 1013.8 |
| 20260507222336 | 56 | 297 | 4.0 | 9.0 | 0.00 | 0.00 | 0.00 | 46 | 1013.8 |
| 20260507221835 | 57 | 286 | 3.0 | 9.0 | 0.00 | 0.00 | 0.00 | 46 | 1013.8 |
| 20260507221336 | 57 | 292 | 4.0 | 9.0 | 0.00 | 0.00 | 0.00 | 46 | 1013.8 |
| 20260507221107 | 57 | 294 | 4.0 | 9.0 | 0.00 | 0.00 | 0.00 | 45 | 1013.6 |
| 20260507220336 | 57 | 336 | 4.0 | 12.0 | 0.00 | 0.00 | 0.00 | 44 | 1013.7 |
| 20260507215833 | 57 | 279 | 5.0 | 12.0 | 0.00 | 0.00 | 0.00 | 43 | 1013.7 |
| 20260507215333 | 58 | 303 | 7.0 | 13.0 | 0.00 | 0.00 | 0.00 | 44 | 1013.6 |
| 20260507214833 | 58 | 270 | 7.0 | 15.0 | 0.00 | 0.00 | 0.00 | 43 | 1013.6 |
| 20260507214605 | 58 | 248 | 5.0 | 15.0 | 0.00 | 0.00 | 0.00 | 43 | 1013.6 |
| 20260507213833 | 58 | 262 | 6.0 | 11.0 | 0.00 | 0.00 | 0.00 | 44 | 1013.6 |
| 20260507213334 | 58 | 259 | 8.0 | 15.0 | 0.00 | 0.00 | 0.00 | 44 | 1013.6 |
| 20260507212830 | 58 | 231 | 9.0 | 15.0 | 0.00 | 0.00 | 0.00 | 45 | 1013.7 |
| 20260507212329 | 58 | 258 | 9.0 | 15.0 | 0.00 | 0.00 | 0.00 | 44 | 1013.7 |
| 20260507211829 | 58 | 269 | 7.0 | 15.0 | 0.00 | 0.00 | 0.00 | 43 | 1013.7 |
| 20260507211330 | 57 | 326 | 5.0 | 11.0 | 0.00 | 0.00 | 0.00 | 47 | 1013.7 |
| 20260507210830 | 57 | 319 | 4.0 | 13.0 | 0.00 | 0.00 | 0.00 | 46 | 1013.8 |
| 20260507210330 | 56 | 330 | 5.0 | 13.0 | 0.00 | 0.00 | 0.00 | 47 | 1013.7 |
| 20260507205830 | 56 | 331 | 8.0 | 16.0 | 0.00 | 0.00 | 0.00 | 46 | 1013.8 |
| 20260507205330 | 56 | 319 | 7.0 | 16.0 | 0.00 | 0.00 | 0.00 | 46 | 1013.9 |
| 20260507204830 | 56 | 294 | 6.0 | 13.0 | 0.00 | 0.00 | 0.00 | 47 | 1013.9 |
| 20260507204323 | 56 | 313 | 6.0 | 13.0 | 0.00 | 0.00 | 0.00 | 46 | 1013.9 |
| 20260507203823 | 56 | 277 | 7.0 | 15.0 | 0.00 | 0.00 | 0.00 | 48 | 1013.9 |
| 20260507203324 | 56 | 319 | 8.0 | 15.0 | 0.00 | 0.00 | 0.00 | 48 | 1013.9 |
| 20260507202824 | 56 | 281 | 8.0 | 18.0 | 0.00 | 0.00 | 0.00 | 46 | 1014.0 |
| 20260507202323 | 57 | 302 | 9.0 | 18.0 | 0.00 | 0.00 | 0.00 | 47 | 1014.0 |
| 20260507201823 | 58 | 299 | 10.0 | 18.0 | 0.00 | 0.00 | 0.00 | 47 | 1014.0 |
| 20260507201554 | 57 | 265 | 9.0 | 18.0 | 0.00 | 0.00 | 0.00 | 45 | 1013.9 |
| 20260507201054 | 57 | 279 | 7.0 | 13.0 | 0.00 | 0.00 | 0.00 | 46 | 1014.0 |
| 20260507200324 | 57 | 286 | 8.0 | 17.0 | 0.00 | 0.00 | 0.00 | 49 | 1014.0 |
| 20260507195822 | 57 | 317 | 7.0 | 17.0 | 0.00 | 0.00 | 0.00 | 46 | 1014.0 |
| 20260507195321 | 57 | 288 | 9.0 | 18.0 | 0.00 | 0.00 | 0.00 | 49 | 1014.2 |
| 20260507194821 | 57 | 253 | 9.0 | 18.0 | 0.00 | 0.00 | 0.00 | 46 | 1014.4 |
| 20260507194322 | 57 | 277 | 9.0 | 17.0 | 0.00 | 0.00 | 0.00 | 49 | 1014.3 |
| 20260507193821 | 56 | 310 | 9.0 | 17.0 | 0.00 | 0.00 | 0.00 | 47 | 1014.2 |
| 20260507193322 | 56 | 308 | 8.0 | 17.0 | 0.00 | 0.00 | 0.00 | 46 | 1014.4 |
| 20260507192822 | 57 | 298 | 8.0 | 17.0 | 0.00 | 0.00 | 0.00 | 50 | 1014.5 |
| 20260507192553 | 56 | 298 | 9.0 | 17.0 | 0.00 | 0.00 | 0.00 | 49 | 1014.5 |
| 20260507191821 | 56 | 300 | 9.0 | 17.0 | 0.00 | 0.00 | 0.00 | 49 | 1014.4 |
| 20260507191322 | 56 | 321 | 10.0 | 17.0 | 0.00 | 0.00 | 0.00 | 50 | 1014.4 |
| 20260507191053 | 56 | 331 | 9.0 | 16.0 | 0.00 | 0.00 | 0.00 | 51 | 1014.4 |
| 20260507190322 | 56 | 304 | 8.0 | 16.0 | 0.00 | 0.00 | 0.00 | 50 | 1014.3 |
| 20260507185821 | 56 | 282 | 8.0 | 16.0 | 0.00 | 0.00 | 0.00 | 49 | 1014.5 |
| 20260507185322 | 56 | 340 | 8.0 | 18.0 | 0.00 | 0.00 | 0.00 | 47 | 1014.4 |